Tracking 18980 objects as of 20-Feb-2018
HD Live streaming from Space Station
objects crossing your sky now

LEMUR 2 SOKOLSKY

Track LEMUR 2 SOKOLSKY now!
10-day predictions
LEMUR 2 SOKOLSKY is classified as:


NORAD ID: 41872
Int'l Code: 2016-062D
Perigee: 499.6 km
Apogee: 504.0 km
Inclination: 51.7 °
Period: 94.5 minutes
Semi major axis: 6872 km
RCS: Unknown
Launch date: October 17, 2016
Source: (USA)
Launch site: WALLOPS ISLAND (WLPIS)
aabbcc
Your satellite tracking list
Your tracking list is empty




NASA's NSSDC Master Catalog

Two Line Element Set (TLE):
1 41872U 16062D   18050.92356515 +.00001114 +00000-0 +59596-4 0  9992
2 41872 051.6849 349.2516 0003218 044.1069 316.0169 15.23708334068696
Source of the keplerian elements: AFSPC